Time,TemperatureF,DewpointF,PressureIn,WindDirection,WindDirectionDegrees,WindSpeedMPH,WindSpeedGustMPH,Humidity,HourlyPrecipIn,Conditions,Clouds,dailyrainin,SoftwareType,DateUTC
2013-03-12 00:13:00,8.2,2.5,30.65,North,0,2.2,-999.0,77,-99.99,,,0.00,Acu-Link.com,2013-03-12 08:13:00,
2013-03-12 00:28:00,6.8,1.4,30.65,North,0,2.7,-999.0,78,-99.99,,,0.00,Acu-Link.com,2013-03-12 08:28:00,
2013-03-12 00:43:00,5.9,0.0,30.66,West,270,2.7,-999.0,76,-99.99,,,0.00,Acu-Link.com,2013-03-12 08:43:00,
2013-03-12 00:58:00,6.1,0.5,30.67,NE,45,1.1,-999.0,77,-99.99,,,0.00,Acu-Link.com,2013-03-12 08:58:00,
2013-03-12 01:14:00,4.3,-1.0,30.66,NE,45,0.0,-999.0,78,-99.99,,,0.00,Acu-Link.com,2013-03-12 09:14:00,
2013-03-12 01:29:00,3.2,-0.5,30.66,NE,45,0.0,-999.0,84,-99.99,,,0.00,Acu-Link.com,2013-03-12 09:29:00,
2013-03-12 01:44:00,3.4,-0.6,30.66,NE,45,2.2,-999.0,83,-99.99,,,0.00,Acu-Link.com,2013-03-12 09:44:00,
2013-03-12 01:59:00,3.2,-1.0,30.66,NE,45,1.7,-999.0,82,-99.99,,,0.00,Acu-Link.com,2013-03-12 09:59:00,
2013-03-12 02:14:00,2.1,-1.9,30.65,NE,45,1.7,-999.0,83,-99.99,,,0.00,Acu-Link.com,2013-03-12 10:14:00,
2013-03-12 02:29:00,0.7,-3.0,30.66,NE,45,0.0,-999.0,84,-99.99,,,0.00,Acu-Link.com,2013-03-12 10:29:00,
2013-03-12 02:44:00,0.5,-2.4,30.66,NE,45,2.2,-999.0,87,-99.99,,,0.00,Acu-Link.com,2013-03-12 10:44:00,
2013-03-12 02:59:00,0.1,-3.3,30.66,NE,45,0.0,-999.0,85,-99.99,,,0.00,Acu-Link.com,2013-03-12 10:59:00,
2013-03-12 03:14:00,-0.2,-3.6,30.67,NE,45,1.7,-999.0,85,-99.99,,,0.00,Acu-Link.com,2013-03-12 11:14:00,
2013-03-12 03:30:00,0.0,-2.2,30.66,West,270,1.1,-999.0,90,-99.99,,,0.00,Acu-Link.com,2013-03-12 11:30:00,
2013-03-12 03:45:00,-0.2,-3.4,30.66,West,270,1.7,-999.0,86,-99.99,,,0.00,Acu-Link.com,2013-03-12 11:45:00,
2013-03-12 04:00:00,0.3,-2.4,30.65,West,270,0.0,-999.0,88,-99.99,,,0.00,Acu-Link.com,2013-03-12 12:00:00,
2013-03-12 04:15:00,-0.2,-3.6,30.66,West,270,0.0,-999.0,85,-99.99,,,0.00,Acu-Link.com,2013-03-12 12:15:00,
2013-03-12 04:30:00,-1.1,-4.3,30.65,West,270,0.0,-999.0,86,-99.99,,,0.00,Acu-Link.com,2013-03-12 12:30:00,
2013-03-12 04:45:00,-2.0,-5.4,30.65,West,270,0.0,-999.0,85,-99.99,,,0.00,Acu-Link.com,2013-03-12 12:45:00,
2013-03-12 05:00:00,-2.4,-6.0,30.66,West,270,0.0,-999.0,84,-99.99,,,0.00,Acu-Link.com,2013-03-12 13:00:00,
2013-03-12 05:15:00,-2.0,-4.9,30.66,West,270,1.7,-999.0,87,-99.99,,,0.00,Acu-Link.com,2013-03-12 13:15:00,
2013-03-12 05:30:00,-2.9,-6.0,30.66,West,270,0.0,-999.0,86,-99.99,,,0.00,Acu-Link.com,2013-03-12 13:30:00,
2013-03-12 05:46:00,-2.9,-5.8,30.65,West,270,0.0,-999.0,87,-99.99,,,0.00,Acu-Link.com,2013-03-12 13:46:00,
2013-03-12 06:01:00,-2.6,-6.2,30.65,West,270,1.7,-999.0,84,-99.99,,,0.00,Acu-Link.com,2013-03-12 14:01:00,
2013-03-12 07:01:00,-3.8,-7.4,30.65,NNW,337,0.0,-999.0,84,-99.99,,,0.00,Acu-Link.com,2013-03-12 15:01:00,
2013-03-12 07:16:00,-3.6,-7.2,30.65,NNW,337,0.0,-999.0,84,-99.99,,,0.00,Acu-Link.com,2013-03-12 15:16:00,
2013-03-12 07:31:00,-4.4,-8.2,30.65,NNW,337,0.0,-999.0,83,-99.99,,,0.00,Acu-Link.com,2013-03-12 15:31:00,
2013-03-12 07:46:00,-4.2,-7.5,30.64,NNW,337,0.0,-999.0,85,-99.99,,,0.00,Acu-Link.com,2013-03-12 15:46:00,
2013-03-12 08:02:00,-4.7,-8.5,30.64,NNW,337,0.0,-999.0,83,-99.99,,,0.00,Acu-Link.com,2013-03-12 16:02:00,
2013-03-12 08:17:00,-5.1,-8.9,30.64,NNW,337,0.0,-999.0,83,-99.99,,,0.00,Acu-Link.com,2013-03-12 16:17:00,
2013-03-12 08:32:00,-5.4,-9.0,30.63,NNW,337,0.0,-999.0,84,-99.99,,,0.00,Acu-Link.com,2013-03-12 16:32:00,
2013-03-12 09:17:00,-3.8,-7.4,30.64,NNW,337,0.0,-999.0,84,-99.99,,,0.00,Acu-Link.com,2013-03-12 17:17:00,
2013-03-12 09:32:00,-1.3,-4.5,30.63,NNW,337,0.0,-999.0,86,-99.99,,,0.00,Acu-Link.com,2013-03-12 17:32:00,
2013-03-12 09:47:00,0.9,-2.5,30.64,NNW,337,0.0,-999.0,85,-99.99,,,0.00,Acu-Link.com,2013-03-12 17:47:00,
2013-03-12 10:02:00,3.0,-0.5,30.63,NNW,337,0.0,-999.0,85,-99.99,,,0.00,Acu-Link.com,2013-03-12 18:02:00,
2013-03-12 10:18:00,2.8,-1.2,30.63,NNW,337,0.0,-999.0,83,-99.99,,,0.00,Acu-Link.com,2013-03-12 18:18:00,
2013-03-12 10:33:00,5.4,1.6,30.63,NNW,337,0.0,-999.0,84,-99.99,,,0.00,Acu-Link.com,2013-03-12 18:33:00,
2013-03-12 10:48:00,5.5,2.0,30.61,NNW,337,0.0,-999.0,85,-99.99,,,0.00,Acu-Link.com,2013-03-12 18:48:00,
2013-03-12 11:03:00,8.8,4.7,30.62,NNW,337,0.0,-999.0,83,-99.99,,,0.00,Acu-Link.com,2013-03-12 19:03:00,
2013-03-12 11:18:00,10.4,6.0,30.61,NNW,337,0.0,-999.0,82,-99.99,,,0.00,Acu-Link.com,2013-03-12 19:18:00,
2013-03-12 11:33:00,12.2,4.3,30.60,NNW,337,1.7,-999.0,70,-99.99,,,0.00,Acu-Link.com,2013-03-12 19:33:00,
2013-03-12 11:48:00,13.5,5.3,30.61,NE,45,2.7,-999.0,69,-99.99,,,0.00,Acu-Link.com,2013-03-12 19:48:00,
2013-03-12 12:03:00,13.6,4.7,30.60,NE,45,0.0,-999.0,67,-99.99,,,0.00,Acu-Link.com,2013-03-12 20:03:00,
2013-03-12 12:18:00,14.5,3.9,30.60,NE,45,1.1,-999.0,62,-99.99,,,0.00,Acu-Link.com,2013-03-12 20:18:00,
2013-03-12 12:33:00,15.8,4.4,30.60,NE,45,0.0,-999.0,60,-99.99,,,0.00,Acu-Link.com,2013-03-12 20:33:00,
2013-03-12 12:49:00,16.9,4.3,30.59,ESE,112,0.0,-999.0,57,-99.99,,,0.00,Acu-Link.com,2013-03-12 20:49:00,
2013-03-12 13:04:00,17.8,4.0,30.59,East,90,0.0,-999.0,54,-99.99,,,0.00,Acu-Link.com,2013-03-12 21:04:00,
2013-03-12 13:19:00,18.5,5.1,30.58,ESE,112,2.7,-999.0,55,-99.99,,,0.00,Acu-Link.com,2013-03-12 21:19:00,
2013-03-12 13:49:00,20.1,4.5,30.58,WNW,292,1.7,-999.0,50,-99.99,,,0.00,Acu-Link.com,2013-03-12 21:49:00,
2013-03-12 14:04:00,23.4,5.7,30.57,South,180,0.0,-999.0,46,-99.99,,,0.00,Acu-Link.com,2013-03-12 22:04:00,
2013-03-12 14:20:00,21.4,4.3,30.57,WNW,292,2.7,-999.0,47,-99.99,,,0.00,Acu-Link.com,2013-03-12 22:20:00,
2013-03-12 14:35:00,22.3,4.2,30.57,South,180,1.7,-999.0,45,-99.99,,,0.00,Acu-Link.com,2013-03-12 22:35:00,
2013-03-12 14:50:00,23.4,5.2,30.57,SSE,157,1.7,-999.0,45,-99.99,,,0.00,Acu-Link.com,2013-03-12 22:50:00,
2013-03-12 15:05:00,22.8,3.7,30.56,SW,225,0.0,-999.0,43,-99.99,,,0.00,Acu-Link.com,2013-03-12 23:05:00,
2013-03-12 15:20:00,22.6,4.5,30.55,SSE,157,1.1,-999.0,45,-99.99,,,0.00,Acu-Link.com,2013-03-12 23:20:00,
2013-03-12 15:35:00,22.6,4.0,30.55,East,90,2.2,-999.0,44,-99.99,,,0.00,Acu-Link.com,2013-03-12 23:35:00,
2013-03-12 15:50:00,24.8,4.5,30.54,SSW,202,1.7,-999.0,41,-99.99,,,0.00,Acu-Link.com,2013-03-12 23:50:00,
2013-03-12 16:05:00,23.5,3.8,30.53,SSE,157,3.7,-999.0,42,-99.99,,,0.00,Acu-Link.com,2013-03-13 00:05:00,
2013-03-12 16:20:00,23.2,3.6,30.52,SW,225,2.7,-999.0,42,-99.99,,,0.00,Acu-Link.com,2013-03-13 00:20:00,
2013-03-12 16:36:00,22.5,2.9,30.53,SW,225,2.7,-999.0,42,-99.99,,,0.00,Acu-Link.com,2013-03-13 00:36:00,
2013-03-12 16:51:00,22.6,3.5,30.51,SW,225,2.7,-999.0,43,-99.99,,,0.00,Acu-Link.com,2013-03-13 00:51:00,
2013-03-12 17:21:00,23.9,3.7,30.51,WSW,247,3.7,-999.0,41,-99.99,,,0.00,Acu-Link.com,2013-03-13 01:21:00,
2013-03-12 17:36:00,23.0,3.9,30.51,SSW,202,0.0,-999.0,43,-99.99,,,0.00,Acu-Link.com,2013-03-13 01:36:00,
2013-03-12 17:51:00,22.8,2.7,30.50,SSE,157,0.0,-999.0,41,-99.99,,,0.00,Acu-Link.com,2013-03-13 01:51:00,
2013-03-12 18:37:00,19.6,3.1,30.48,SSW,202,0.0,-999.0,48,-99.99,,,0.00,Acu-Link.com,2013-03-13 02:37:00,
2013-03-12 19:22:00,15.8,2.5,30.47,SSW,202,1.7,-999.0,55,-99.99,,,0.00,Acu-Link.com,2013-03-13 03:22:00,
2013-03-12 19:37:00,12.6,1.7,30.46,SSW,202,0.0,-999.0,61,-99.99,,,0.00,Acu-Link.com,2013-03-13 03:37:00,
2013-03-12 19:52:00,10.2,-0.2,30.45,SSW,202,0.0,-999.0,62,-99.99,,,0.00,Acu-Link.com,2013-03-13 03:52:00,
2013-03-12 20:07:00,8.4,-0.9,30.46,SE,135,0.0,-999.0,65,-99.99,,,0.00,Acu-Link.com,2013-03-13 04:07:00,
2013-03-12 20:22:00,6.6,-1.1,30.45,SE,135,1.7,-999.0,70,-99.99,,,0.00,Acu-Link.com,2013-03-13 04:22:00,
2013-03-12 20:38:00,5.7,-1.6,30.45,ENE,67,0.0,-999.0,71,-99.99,,,0.00,Acu-Link.com,2013-03-13 04:38:00,
2013-03-12 20:53:00,5.0,-2.3,30.45,ENE,67,0.0,-999.0,71,-99.99,,,0.00,Acu-Link.com,2013-03-13 04:53:00,
2013-03-12 21:08:00,4.1,-3.2,30.45,ENE,67,1.7,-999.0,71,-99.99,,,0.00,Acu-Link.com,2013-03-13 05:08:00,
2013-03-12 21:23:00,3.7,-3.6,30.44,ENE,67,0.0,-999.0,71,-99.99,,,0.00,Acu-Link.com,2013-03-13 05:23:00,
2013-03-12 21:38:00,3.4,-3.9,30.44,ENE,67,1.7,-999.0,71,-99.99,,,0.00,Acu-Link.com,2013-03-13 05:38:00,
2013-03-12 21:53:00,2.8,-4.1,30.44,ENE,67,0.0,-999.0,72,-99.99,,,0.00,Acu-Link.com,2013-03-13 05:53:00,
2013-03-12 22:09:00,2.7,-4.5,30.43,ENE,67,0.0,-999.0,71,-99.99,,,0.00,Acu-Link.com,2013-03-13 06:09:00,
2013-03-12 22:24:00,2.1,-5.4,30.43,ENE,67,0.0,-999.0,70,-99.99,,,0.00,Acu-Link.com,2013-03-13 06:24:00,
2013-03-12 22:39:00,2.3,-5.2,30.44,ENE,67,0.0,-999.0,70,-99.99,,,0.00,Acu-Link.com,2013-03-13 06:39:00,
2013-03-12 22:54:00,3.0,-6.1,30.42,ENE,67,0.0,-999.0,65,-99.99,,,0.00,Acu-Link.com,2013-03-13 06:54:00,
2013-03-12 23:09:00,2.7,-5.4,30.43,ENE,67,2.2,-999.0,68,-99.99,,,0.00,Acu-Link.com,2013-03-13 07:09:00,
2013-03-12 23:24:00,1.6,-6.2,30.42,ENE,67,0.0,-999.0,69,-99.99,,,0.00,Acu-Link.com,2013-03-13 07:24:00,
2013-03-12 23:39:00,0.0,-6.6,30.42,ENE,67,0.0,-999.0,73,-99.99,,,0.00,Acu-Link.com,2013-03-13 07:39:00,
2013-03-12 23:54:00,-0.8,-6.8,30.41,ENE,67,0.0,-999.0,75,-99.99,,,0.00,Acu-Link.com,2013-03-13 07:54:00,